Stündliche Wetter Cayo Carenero

Heute, 19 Januar, Dienstag

Zeit Temperatur Niederschläge Wind Luftdruck Luftfeuchtigkeit
00:00 +26°C° 0.2 mm 3 m/S 760 mmHg 86%
01:00 +25°C° 0.2 mm 3 m/S 759 mmHg 86%
02:00 +25°C° 0.1 mm 3 m/S 759 mmHg 85%
03:00 +23°C° 0.1 mm 4 m/S 759 mmHg 84%
04:00 +23°C° 0.1 mm 4 m/S 758 mmHg 82%
05:00 +24°C° 0 mm 3 m/S 759 mmHg 80%
06:00 +24°C° 0 mm 3 m/S 759 mmHg 77%
07:00 +24°C° 0 mm 2 m/S 759 mmHg 75%
08:00 +25°C° 0 mm 2 m/S 760 mmHg 72%
09:00 +27°C° 0 mm 2 m/S 760 mmHg 68%
10:00 +28°C° 0 mm 2 m/S 760 mmHg 65%
11:00 +29°C° 0 mm 3 m/S 760 mmHg 61%
12:00 +30°C° 0 mm 3 m/S 759 mmHg 57%
13:00 +31°C° 0 mm 3 m/S 759 mmHg 53%
14:00 +30°C° 0 mm 4 m/S 759 mmHg 60%
15:00 +29°C° 0 mm 4 m/S 758 mmHg 67%
16:00 +28°C° 0 mm 4 m/S 758 mmHg 74%
17:00 +27°C° 0.4 mm 4 m/S 758 mmHg 76%
18:00 +27°C° 0.4 mm 4 m/S 758 mmHg 78%
19:00 +26°C° 0.4 mm 4 m/S 758 mmHg 79%
20:00 +26°C° 0.9 mm 4 m/S 759 mmHg 79%
21:00 +26°C° 0.9 mm 4 m/S 759 mmHg 79%
22:00 +26°C° 0.9 mm 4 m/S 760 mmHg 80%
23:00 +26°C° 0.9 mm 4 m/S 759 mmHg 80%

Morgen, 20 Januar, Mittwoch

Zeit Temperatur Niederschläge Wind Luftdruck Luftfeuchtigkeit
00:00 +26°C° 0.9 mm 4 m/S 759 mmHg 81%
01:00 +26°C° 0.9 mm 3 m/S 759 mmHg 82%
02:00 +26°C° 1.4 mm 4 m/S 759 mmHg 84%
03:00 +26°C° 1.4 mm 4 m/S 758 mmHg 85%
04:00 +26°C° 1.4 mm 4 m/S 758 mmHg 87%
05:00 +25°C° 1.6 mm 4 m/S 758 mmHg 88%
06:00 +25°C° 1.6 mm 4 m/S 758 mmHg 89%
07:00 +25°C° 1.6 mm 4 m/S 759 mmHg 90%
08:00 +26°C° 1.1 mm 4 m/S 759 mmHg 84%
09:00 +28°C° 1.1 mm 4 m/S 759 mmHg 78%
10:00 +29°C° 1.1 mm 3 m/S 760 mmHg 73%
11:00 +29°C° 1 mm 4 m/S 759 mmHg 73%
12:00 +29°C° 1 mm 4 m/S 759 mmHg 74%
13:00 +29°C° 1 mm 4 m/S 758 mmHg 75%
14:00 +29°C° 0.9 mm 4 m/S 758 mmHg 78%
15:00 +29°C° 0.9 mm 4 m/S 757 mmHg 81%
16:00 +28°C° 0.9 mm 4 m/S 757 mmHg 84%
17:00 +28°C° 1.1 mm 4 m/S 757 mmHg 85%
18:00 +27°C° 1.1 mm 4 m/S 757 mmHg 86%
19:00 +27°C° 1.1 mm 4 m/S 757 mmHg 87%
20:00 +26°C° 1.4 mm 4 m/S 758 mmHg 87%
21:00 +26°C° 1.4 mm 3 m/S 758 mmHg 87%
22:00 +26°C° 1.4 mm 3 m/S 759 mmHg 87%
23:00 +26°C° 1.7 mm 3 m/S 759 mmHg 87%

übermorgen, 21 Januar, Donnerstag

Zeit Temperatur Niederschläge Wind Luftdruck Luftfeuchtigkeit
00:00 +26°C° 1.7 mm 3 m/S 759 mmHg 87%
01:00 +26°C° 1.7 mm 3 m/S 759 mmHg 87%
02:00 +26°C° 1.4 mm 3 m/S 758 mmHg 87%
03:00 +25°C° 1.4 mm 3 m/S 758 mmHg 86%
04:00 +25°C° 1.4 mm 3 m/S 758 mmHg 86%
05:00 +25°C° 1.4 mm 3 m/S 758 mmHg 87%
06:00 +25°C° 1.4 mm 3 m/S 758 mmHg 87%
07:00 +25°C° 1.4 mm 3 m/S 759 mmHg 87%
08:00 +26°C° 0.7 mm 3 m/S 759 mmHg 83%
09:00 +28°C° 0.7 mm 3 m/S 759 mmHg 79%
10:00 +29°C° 0.7 mm 3 m/S 760 mmHg 75%
11:00 +29°C° 0.2 mm 3 m/S 759 mmHg 73%
12:00 +30°C° 0.2 mm 3 m/S 759 mmHg 71%
13:00 +30°C° 0.2 mm 3 m/S 758 mmHg 69%
14:00 +30°C° 0.2 mm 3 m/S 758 mmHg 69%
15:00 +30°C° 0.2 mm 3 m/S 757 mmHg 68%
16:00 +30°C° 0.2 mm 3 m/S 756 mmHg 67%
17:00 +29°C° 0.9 mm 3 m/S 757 mmHg 72%
18:00 +28°C° 0.9 mm 3 m/S 757 mmHg 77%
19:00 +27°C° 0.9 mm 3 m/S 757 mmHg 82%
20:00 +27°C° 1.4 mm 3 m/S 758 mmHg 83%
21:00 +27°C° 1.4 mm 3 m/S 758 mmHg 83%
22:00 +27°C° 1.4 mm 2 m/S 759 mmHg 84%
23:00 +26°C° 1.2 mm 2 m/S 759 mmHg 86%

22 Januar, Freitag

Zeit Temperatur Niederschläge Wind Luftdruck Luftfeuchtigkeit
00:00 +26°C° 1.2 mm 2 m/S 759 mmHg 88%
01:00 +26°C° 1.2 mm 2 m/S 758 mmHg 89%
02:00 +25°C° 0.7 mm 2 m/S 758 mmHg 89%
03:00 +25°C° 0.7 mm 2 m/S 758 mmHg 89%
04:00 +25°C° 0.7 mm 2 m/S 758 mmHg 88%
05:00 +25°C° 0.3 mm 2 m/S 758 mmHg 88%
06:00 +25°C° 0.3 mm 3 m/S 758 mmHg 87%
07:00 +25°C° 0.3 mm 3 m/S 759 mmHg 87%
08:00 +26°C° 0 mm 3 m/S 759 mmHg 81%
09:00 +28°C° 0 mm 3 m/S 759 mmHg 76%
10:00 +29°C° 0 mm 3 m/S 760 mmHg 70%
11:00 +30°C° 0 mm 2 m/S 759 mmHg 66%
12:00 +30°C° 0 mm 2 m/S 759 mmHg 61%
13:00 +31°C° 0 mm 2 m/S 759 mmHg 57%
14:00 +31°C° 0 mm 2 m/S 758 mmHg 60%
15:00 +30°C° 0 mm 3 m/S 758 mmHg 64%
16:00 +30°C° 0 mm 3 m/S 757 mmHg 67%
17:00 +29°C° 0.1 mm 3 m/S 757 mmHg 72%
18:00 +28°C° 0.1 mm 2 m/S 758 mmHg 77%
19:00 +27°C° 0.1 mm 2 m/S 758 mmHg 83%
20:00 +27°C° 0.3 mm 2 m/S 759 mmHg 84%
21:00 +27°C° 0.3 mm 2 m/S 759 mmHg 85%
22:00 +26°C° 0.3 mm 2 m/S 760 mmHg 86%
23:00 +26°C° 0.2 mm 2 m/S 759 mmHg 84%

23 Januar, Samstag

Zeit Temperatur Niederschläge Wind Luftdruck Luftfeuchtigkeit
00:00 +26°C° 0.2 mm 2 m/S 759 mmHg 83%
01:00 +26°C° 0.2 mm 2 m/S 759 mmHg 81%
02:00 +26°C° 0 mm 2 m/S 759 mmHg 81%
03:00 +26°C° 0 mm 2 m/S 758 mmHg 81%
04:00 +25°C° 0 mm 2 m/S 758 mmHg 81%
05:00 +25°C° 0 mm 2 m/S 758 mmHg 80%
06:00 +25°C° 0 mm 2 m/S 759 mmHg 79%
07:00 +25°C° 0 mm 2 m/S 759 mmHg 79%
08:00 +26°C° 0.1 mm 2 m/S 759 mmHg 73%
09:00 +28°C° 0.1 mm 2 m/S 760 mmHg 68%
10:00 +29°C° 0.1 mm 2 m/S 760 mmHg 63%
11:00 +30°C° 0 mm 2 m/S 760 mmHg 63%
12:00 +30°C° 0 mm 2 m/S 759 mmHg 64%
13:00 +30°C° 0 mm 3 m/S 759 mmHg 64%
14:00 +30°C° 0.1 mm 3 m/S 758 mmHg 66%
15:00 +30°C° 0.1 mm 3 m/S 758 mmHg 68%
16:00 +30°C° 0.1 mm 3 m/S 757 mmHg 71%
17:00 +29°C° 0.1 mm 3 m/S 757 mmHg 75%
18:00 +28°C° 0.1 mm 3 m/S 757 mmHg 80%
19:00 +27°C° 0.1 mm 2 m/S 758 mmHg 84%
20:00 +27°C° 0.3 mm 3 m/S 758 mmHg 85%
21:00 +26°C° 0.3 mm 3 m/S 759 mmHg 86%
22:00 +26°C° 0.3 mm 3 m/S 759 mmHg 86%
23:00 +26°C° 0.4 mm 3 m/S 759 mmHg 86%

24 Januar, Sonntag

Zeit Temperatur Niederschläge Wind Luftdruck Luftfeuchtigkeit
00:00 +26°C° 0.4 mm 3 m/S 759 mmHg 85%
01:00 +25°C° 0.4 mm 3 m/S 759 mmHg 84%
02:00 +25°C° 0.1 mm 3 m/S 758 mmHg 83%
03:00 +25°C° 0.1 mm 3 m/S 758 mmHg 83%
04:00 +25°C° 0.1 mm 3 m/S 758 mmHg 82%
05:00 +25°C° 0.1 mm 3 m/S 758 mmHg 81%
06:00 +25°C° 0.1 mm 3 m/S 758 mmHg 79%
07:00 +25°C° 0.1 mm 3 m/S 758 mmHg 77%
08:00 +26°C° 0.1 mm 3 m/S 759 mmHg 74%
09:00 +27°C° 0.1 mm 3 m/S 759 mmHg 70%
10:00 +28°C° 0.1 mm 3 m/S 759 mmHg 67%
11:00 +29°C° 0.2 mm 3 m/S 759 mmHg 67%
12:00 +29°C° 0.2 mm 3 m/S 759 mmHg 68%
13:00 +30°C° 0.2 mm 3 m/S 758 mmHg 68%
14:00 +30°C° 0.5 mm 3 m/S 758 mmHg 71%
15:00 +29°C° 0.5 mm 3 m/S 757 mmHg 75%
16:00 +29°C° 0.5 mm 3 m/S 757 mmHg 78%
17:00 +28°C° 0.7 mm 3 m/S 757 mmHg 80%
18:00 +27°C° 0.7 mm 3 m/S 757 mmHg 82%
19:00 +27°C° 0.7 mm 3 m/S 757 mmHg 83%
20:00 +26°C° 0.7 mm 3 m/S 758 mmHg 84%
21:00 +26°C° 0.7 mm 3 m/S 758 mmHg 85%
22:00 +26°C° 0.7 mm 3 m/S 759 mmHg 85%
23:00 +25°C° 0.5 mm 3 m/S 759 mmHg 85%
Mehr zeigen

Wir brauchen deine Erlaubnis

Meteoprog und unser Service Anbieter werden persönliche Daten aufbewahren, so wie Cookies, Geräte Bezeichnung oder ähnliche Technologien von deinem Gerät und Prozess, so wie Persönliche Daten Inhalte und Werbungen, genauso wie social Media und den Verkehr zu analysieren.

  • Aufbewahrung und/oder Zugang zu deiner Geräte Informationen.

    Cookies, Geräte Bezeichnung oder andere Informationen, können aufbewahrt oder Zugang zu deinem Gerät erhalten, für den Grund, der oben angegeben wird.

  • Personalisierte Werbung und Inhalte, Messungen, Einblick in das Publikum und Produkt Entwicklung.

    Werbungen und Inhalte können personalisiert werden, basierend auf ein Profil. Mehr Daten können besser personalisierte Werbungen und Inhalte hinzufügen. Werbung und Inhalte können gezeigt und gemessen werden. Einblicke über das Publikum, welche die Werbung gesehen haben und den Inhalt, können abgeleitet werden. So wie Daten können genutzt werden, um es zu verbessern oder die Benutzer Erfahrung zu verbessern das System und die Software.

Wenn du “Ich stimme zu” klickst, erlaubst du uns, die Cookies zu benutzen die Geräte Bezeichnung, den Web oder ähnliche Technologien zu benutzen. Deine Settings, können in deinem Gerät bei deinem Browser geändert werden.

Für den bestimmten Zweck, berechtigten Interessen beruhen darauf, mehr als auf den Inhalt. Du kannst mehr darüber in unseren Privaten und Cookie Politik lesen.